Location: Twentynine Palms Airport
(34.1316°N, 115.9458°W)
Time: 05:27:54
(UTC-07:00)

Amateur Radio Satellites - All Passes

Search period start: 06 May 2015 04:57
Search period end: 07 May 2015 04:57
Location: Twentynine Palms Airport, 34.1316°N, 115.9458°W

Satellite Date Start Highest point End Downlink Frequencies (MHz)
Time Altitude Azimuth
AUBIESAT-1 06 May 05:07:17 05:07:54 10° 62° (ENE) 05:08:48 437.475
AO-7 06 May 05:20:42 05:29:01 72° 289° (WNW) 05:37:18 29.400- 29.500
MOZHAYETS 4 06 May 05:22:10 05:26:21 32° 264° (W) 05:30:28
Cosmos 2499 06 May 05:38:53 05:45:47 45° 270° (W) 05:52:21 435.465 / 435.565
JAS-2 06 May 05:48:16 05:52:54 26° 293° (WNW) 05:57:07 435.910
HORYU 2 06 May 05:51:46 05:53:02 11° 294° (WNW) 05:54:02 437.375
STRAND 1 06 May 05:54:28 05:57:50 19° 68° (ENE) 06:01:23 437.568
CUBESAT XI-V 06 May 05:54:40 05:58:52 37° 73° (ENE) 06:03:08 437.345
M-CUBED/EXP-1 PRIME 06 May 06:06:31 06:11:12 54° 71° (ENE) 06:15:48 437.505
O/OREOS (USA 219) 06 May 06:07:20 06:11:46 61° 69° (ENE) 06:16:10 437.305
CUTE-I 06 May 06:09:04 06:13:08 23° 94° (E) 06:17:21 437.470
PCSat 06 May 06:11:39 06:16:57 54° 299° (WNW) 06:22:16 145.827
PRISM 06 May 06:11:51 06:15:27 30° 72° (ENE) 06:19:06 437.425
Cubesat XI-IV 06 May 06:21:54 06:26:34 31° 96° (E) 06:31:18 437.490
AUBIESAT-1 06 May 06:37:23 06:42:11 79° 254° (WSW) 06:46:51 437.475
ISS 06 May 06:46:20 06:49:15 33° 132° (SE) 06:52:13 145.825
Cosmos 2491 06 May 07:09:15 07:12:23 13° 61° (ENE) 07:16:17 435.465 / 435.565
AO-7 06 May 07:16:45 07:20:36 13° 306° (NW) 07:23:54 29.400- 29.500
STRAND 1 06 May 07:31:54 07:36:45 43° 261° (W) 07:41:35 437.568
CUBESAT XI-V 06 May 07:33:25 07:36:29 17° 268° (W) 07:39:22 437.345
SO-50 06 May 07:34:17 07:37:15 18° 110° (ESE) 07:40:28 436.795
M-CUBED/EXP-1 PRIME 06 May 07:43:39 07:46:18 14° 264° (W) 07:48:39 437.505
PRISM 06 May 07:48:13 07:51:00 17° 266° (W) 07:53:37 437.425
CUTE-I 06 May 07:48:26 07:53:20 37° 289° (WNW) 07:58:10 437.470
HO-68 06 May 07:55:13 07:57:37 12° 88° (E) 08:00:37 435.675
Cubesat XI-IV 06 May 08:02:05 08:06:36 28° 290° (WNW) 08:11:00 437.490
YUBILEINY 06 May 08:06:50 08:10:34 14° 81° (E) 08:15:01 435.215
BEESAT 3 06 May 08:12:12 08:15:12 20° 51° (NE) 08:18:16 437.485
ISS 06 May 08:23:10 08:25:40 20° 327° (NNW) 08:28:08 145.825
BRITE-PL 06 May 08:29:00 08:34:21 48° 98° (E) 08:39:52 437.365/2234.400
BEESAT 2 06 May 08:29:02 08:32:25 24° 53° (NE) 08:35:48 435.950
SEEDS 06 May 08:30:33 08:32:11 12° 91° (E) 08:34:05 437.485
DOVE 4 06 May 08:33:12 08:37:10 22° 92° (E) 08:41:16 437.250
GOMX 1 06 May 08:53:26 08:58:46 54° 99° (E) 09:04:09 467.674
CANX-2 06 May 08:57:33 09:01:31 38° 98° (E) 09:05:27 2200.000
Cosmos 2491 06 May 09:02:08 09:11:01 79° 83° (E) 09:19:51 435.465 / 435.565
CUTE 1.7 + AOD 2 06 May 09:04:46 09:08:47 42° 98° (E) 09:12:47 437.475
AIST 2 06 May 09:06:20 09:09:22 19° 51° (NE) 09:12:29 435.215
SO-50 06 May 09:13:05 09:17:28 42° 304° (NW) 09:22:02 436.795
COMPASS 1 06 May 09:19:39 09:23:35 40° 98° (E) 09:27:30 437.405
Oscar 11 06 May 09:21:59 09:24:33 16° 92° (E) 09:27:18 145.826/435.025
CINEMA 3 06 May 09:25:57 09:30:34 36° 96° (E) 09:35:07 145.822/145.860
HO-68 06 May 09:39:09 09:46:22 90° 105° (ESE) 09:53:32 435.675
CUBEBUG 2 06 May 09:41:45 09:45:38 26° 94° (E) 09:49:32 437.445
UWE-3 06 May 09:42:43 09:46:08 21° 93° (E) 09:49:37 435.000/436.395/437.385
DELFI C3 06 May 09:44:52 09:47:51 20° 94° (E) 09:50:55 145.870
TIGRISAT 06 May 09:46:54 09:50:25 22° 70° (ENE) 09:54:06 435.000
BEESAT 3 06 May 09:49:41 09:53:16 29° 247° (WSW) 09:56:44 437.485
ZACube-1 06 May 09:50:29 09:53:42 20° 93° (E) 09:57:00 437.345
AAUSAT CUBESAT 2 06 May 09:51:50 09:56:00 90° 188° (S) 10:00:08 437.432
UNISAT 6 06 May 09:56:16 10:00:13 29° 71° (ENE) 10:04:18 437.425
QB50P1 06 May 09:57:19 09:58:49 12° 68° (ENE) 10:00:33 145.935-145.965
YUBILEINY 06 May 09:57:33 10:06:23 89° 102° (ESE) 10:15:14 435.215
VERMONT LUNAR 06 May 09:59:37 10:01:36 15° 143° (SE) 10:03:41 437.305
SEEDS 06 May 10:04:17 10:08:16 41° 286° (WNW) 10:12:12 437.485
BEESAT 2 06 May 10:07:07 10:10:26 23° 248° (WSW) 10:13:38 435.950
BRITE-PL 06 May 10:08:28 10:12:33 21° 291° (WNW) 10:16:31 437.365/2234.400
DOVE 4 06 May 10:10:05 10:15:02 40° 287° (WNW) 10:19:55 437.250
DX 1 06 May 10:15:45 10:18:50 19° 94° (E) 10:22:04 434.975-435.025
QB50P2 06 May 10:25:41 10:29:13 27° 72° (ENE) 10:32:51 145.880/145.840
GOMX 1 06 May 10:32:51 10:36:30 18° 292° (WNW) 10:39:57 467.674
CANX-2 06 May 10:34:42 10:37:09 15° 291° (WNW) 10:39:24 2200.000
NANOSAT C BR1 06 May 10:34:50 10:38:36 33° 73° (ENE) 10:42:27 145.865
VELOX 1 06 May 10:35:07 10:37:28 14° 92° (E) 10:40:03 145.980
ANTELSAT 06 May 10:38:01 10:42:39 87° 71° (ENE) 10:47:22 437.575/2403.000
UKube-1 06 May 10:40:46 10:44:44 35° 98° (E) 10:48:44 .
CUTE 1.7 + AOD 2 06 May 10:42:12 10:44:22 13° 291° (WNW) 10:46:20 437.475
POPSAT HIP 1 06 May 10:43:30 10:47:28 42° 74° (ENE) 10:51:31 437.405
AIST 2 06 May 10:44:15 10:48:03 33° 247° (WSW) 10:51:45 435.215
Cosmos 2504 06 May 10:44:53 10:49:01 15° 82° (E) 10:53:45 435.465 / 435.565
PHONESAT 2.4 06 May 10:55:00 10:56:51 14° 142° (SE) 10:58:49 2401.200-2431.200
FUNcube-1 06 May 10:55:10 10:59:44 73° 282° (WNW) 11:04:09 145.935
AISAT 06 May 10:56:40 11:00:28 27° 96° (E) 11:04:21 437.250
COMPASS 1 06 May 10:56:50 10:58:57 13° 291° (WNW) 11:00:52 437.405
AIST 1 06 May 10:56:54 11:01:08 59° 265° (W) 11:05:22
Oscar 11 06 May 10:56:56 11:00:53 35° 287° (WNW) 11:04:46 145.826/435.025
Cosmos 2491 06 May 11:01:24 11:07:02 18° 278° (W) 11:12:05 435.465 / 435.565
CINEMA 3 06 May 11:03:41 11:07:32 22° 291° (WNW) 11:11:11 145.822/145.860
DUCHIFAT 1 06 May 11:04:25 11:08:36 78° 77° (ENE) 11:12:51 145.980
50 SAT 06 May 11:11:29 11:15:17 43° 98° (E) 11:19:03 437.505
CUBEBUG 2 06 May 11:18:17 11:22:15 26° 289° (WNW) 11:26:03 437.445
HUMSAT D 06 May 11:18:31 11:22:50 83° 283° (WNW) 11:27:03 437.325/437.525
UWE-3 06 May 11:18:36 11:22:43 31° 288° (WNW) 11:26:41 435.000/436.395/437.385
POLYITAN 1 06 May 11:18:39 11:22:52 66° 259° (W) 11:27:08 437.675
DELFI C3 06 May 11:19:42 11:22:57 23° 288° (WNW) 11:26:06 145.870
TIGRISAT 06 May 11:22:56 11:27:00 30° 264° (W) 11:31:06 435.000
RS-15 06 May 11:25:49 11:35:15 38° 108° (ESE) 11:45:04 29.354- 29.394
ZACube-1 06 May 11:26:04 11:30:08 31° 288° (WNW) 11:34:03 437.345
HO-68 06 May 11:29:22 11:33:17 15° 300° (WNW) 11:36:47 435.675
QB50P1 06 May 11:30:13 11:34:18 48° 261° (W) 11:38:25 145.935-145.965
UNISAT 6 06 May 11:33:19 11:37:00 23° 266° (W) 11:40:38 437.425
VERMONT LUNAR 06 May 11:35:25 11:38:42 82° 336° (NNW) 11:42:02 437.305
BUGSAT 1 06 May 11:38:36 11:42:32 56° 260° (W) 11:46:32 437.445
CUBEBUG 1 06 May 11:39:49 11:43:57 39° 98° (E) 11:48:06 437.445
DX 1 06 May 11:51:17 11:55:08 30° 288° (WNW) 11:58:56 434.975-435.025
YUBILEINY 06 May 11:59:23 12:04:36 16° 296° (WNW) 12:09:13 435.215
QB50P2 06 May 12:01:56 12:05:08 20° 266° (W) 12:08:14 145.880/145.840
Oscar 19 06 May 12:07:28 12:09:25 12° 65° (ENE) 12:11:41 437.125/150
VELOX 1 06 May 12:10:03 12:14:16 41° 287° (WNW) 12:18:26 145.980
NANOSAT C BR1 06 May 12:11:53 12:14:35 16° 267° (W) 12:17:07 145.865
SPROUT 06 May 12:13:35 12:17:04 24° 95° (E) 12:20:37 437.525
ESTCUBE 1 06 May 12:17:38 12:22:05 63° 284° (WNW) 12:26:31 437.505/2401.250
UKube-1 06 May 12:17:46 12:20:38 17° 291° (WNW) 12:23:20 .
POPSAT HIP 1 06 May 12:21:43 12:23:38 12° 269° (W) 12:25:19 437.405
PHONESAT 2.4 06 May 12:31:12 12:34:43 85° 156° (SSE) 12:38:16 2401.200-2431.200
TISAT 1 06 May 12:31:49 12:35:31 29° 96° (E) 12:39:17 437.305
Cosmos 2504 06 May 12:32:41 12:41:35 90° 114° (ESE) 12:50:14 435.465 / 435.565
AISAT 06 May 12:33:24 12:36:57 23° 290° (WNW) 12:40:23 437.250
50 SAT 06 May 12:48:16 12:49:42 11° 292° (WNW) 12:50:56 437.505
ITAMSAT 1 06 May 13:08:26 13:11:05 15° 66° (ENE) 13:14:00 435.822/435.867
Gurwin Techsat 1B 06 May 13:10:14 13:12:40 14° 66° (ENE) 13:15:24 435.225
VERMONT LUNAR 06 May 13:13:27 13:16:23 28° 352° (N) 13:19:20 437.305
CUBEBUG 1 06 May 13:17:20 13:20:02 16° 291° (WNW) 13:22:33 437.445
ISS 06 May 13:17:47 13:18:48 11° 26° (NNE) 13:19:53 145.825
ITUPSAT 1 06 May 13:35:10 13:38:45 22° 94° (E) 13:42:28 437.325
RS-15 06 May 13:36:41 13:47:17 54° 307° (NW) 13:58:04 29.354- 29.394
Oscar 19 06 May 13:43:07 13:48:15 69° 258° (WSW) 13:53:27 437.125/150
SPROUT 06 May 13:49:33 13:53:05 24° 289° (WNW) 13:56:31 437.525
BEESAT 06 May 13:57:22 14:01:49 39° 98° (E) 14:06:16 436.000
SWISSCUBE 06 May 14:01:52 14:06:29 48° 100° (E) 14:11:05 437.505
TISAT 1 06 May 14:08:01 14:11:08 19° 290° (WNW) 14:14:08 437.305
PHONESAT 2.4 06 May 14:09:56 14:13:09 32° 351° (N) 14:16:24 2401.200-2431.200
JAS-2 06 May 14:12:42 14:15:54 14° 63° (ENE) 14:19:30 435.910
GONETS M04 06 May 14:24:13 14:31:10 29° 86° (E) 14:38:29
AO-7 06 May 14:25:36 14:31:19 22° 59° (ENE) 14:37:23 29.400- 29.500
Cosmos 2504 06 May 14:30:55 14:36:15 16° 295° (WNW) 14:40:54 435.465 / 435.565
ITAMSAT 1 06 May 14:45:05 14:50:10 58° 259° (W) 14:55:16 435.822/435.867
Gurwin Techsat 1B 06 May 14:46:54 14:52:10 65° 259° (W) 14:57:27 435.225
VERMONT LUNAR 06 May 14:51:18 14:54:17 30° 9° (N) 14:57:18 437.305
ISS 06 May 14:52:21 14:55:37 85° 43° (NE) 14:58:51 145.825
CUSAT 1 06 May 15:01:45 15:05:25 25° 86° (E) 15:10:08 437.405
PCSat 06 May 15:03:11 15:08:29 54° 60° (ENE) 15:13:47 145.827
HORYU 2 06 May 15:07:09 15:11:12 35° 73° (ENE) 15:15:19 437.375
ITUPSAT 1 06 May 15:12:28 15:16:42 31° 289° (WNW) 15:20:51 437.325
DANDE 06 May 15:20:07 15:23:34 25° 86° (E) 15:28:03 436.750
KKS-1 06 May 15:24:42 15:29:10 62° 101° (E) 15:33:37 437.445
BEESAT 06 May 15:36:07 15:39:24 18° 292° (WNW) 15:42:30 436.000
SWISSCUBE 06 May 15:41:14 15:43:59 15° 293° (WNW) 15:46:30 437.505
PHONESAT 2.4 06 May 15:48:42 15:51:54 31° 8° (N) 15:55:07 2401.200-2431.200
STARS 06 May 15:49:21 15:53:48 74° 102° (ESE) 15:58:14 437.465
JAS-2 06 May 15:52:25 16:00:14 81° 76° (ENE) 16:07:31 435.910
RS-15 06 May 15:56:53 16:03:16 16° 336° (NNW) 16:09:19 29.354- 29.394
AO-7 06 May 16:15:10 16:23:26 74° 255° (WSW) 16:31:45 29.400- 29.500
Cosmos 2499 06 May 16:17:35 16:24:26 28° 87° (E) 16:31:21 435.465 / 435.565
GONETS M04 06 May 16:19:05 16:27:38 53° 282° (WNW) 16:36:12
VERMONT LUNAR 06 May 16:28:34 16:31:55 88° 212° (SSW) 16:35:17 437.305
CUSAT 1 06 May 16:43:50 16:47:57 29° 291° (WNW) 16:53:06 437.405
HORYU 2 06 May 16:44:52 16:47:58 18° 267° (W) 16:50:55 437.375
PCSat 06 May 16:48:05 16:51:31 16° 254° (WSW) 16:54:40 145.827
DANDE 06 May 17:03:07 17:06:47 24° 293° (WNW) 17:11:15 436.750
KKS-1 06 May 17:04:14 17:05:20 11° 294° (WNW) 17:06:08 437.445
MOZHAYETS 4 06 May 17:20:29 17:25:04 80° 102° (ESE) 17:29:38
PHONESAT 2.4 06 May 17:26:49 17:30:24 83° 27° (NNE) 17:33:58 2401.200-2431.200
CUTE-I 06 May 17:27:25 17:31:43 27° 69° (ENE) 17:36:08 437.470
Cubesat XI-IV 06 May 17:40:21 17:45:07 36° 71° (ENE) 17:49:58 437.490
JAS-2 06 May 17:40:58 17:45:52 17° 270° (W) 17:50:09 435.910
SO-50 06 May 17:47:45 17:52:41 64° 58° (ENE) 17:57:32 436.795
CUBESAT XI-V 06 May 17:56:51 17:58:42 13° 90° (E) 18:00:49 437.345
VERMONT LUNAR 06 May 18:07:09 18:09:01 14° 217° (SW) 18:10:47 437.305
Cosmos 2499 06 May 18:08:37 18:17:14 56° 281° (W) 18:25:26 435.465 / 435.565
AO-7 06 May 18:16:20 18:17:44 10° 273° (W) 18:18:13 29.400- 29.500
RS-15 06 May 18:18:42 18:22:38 12° 13° (NNE) 18:26:58 29.354- 29.394
O/OREOS (USA 219) 06 May 18:39:57 18:41:06 11° 100° (E) 18:42:34 437.305
PHONESAT 2.4 06 May 19:05:52 19:08:19 17° 217° (SW) 19:10:42 2401.200-2431.200
CUTE-I 06 May 19:06:57 19:11:42 32° 263° (W) 19:16:23 437.470
JUGNU 06 May 19:20:33 19:23:17 13° 167° (SSE) 19:26:07 437.505
Cubesat XI-IV 06 May 19:21:04 19:25:20 23° 266° (W) 19:29:27 437.490
M-CUBED/EXP-1 PRIME 06 May 19:27:13 19:30:55 73° 106° (ESE) 19:34:19 437.505
SO-50 06 May 19:30:39 19:32:46 12° 252° (WSW) 19:34:35 436.795
CUBESAT XI-V 06 May 19:31:59 19:36:29 51° 285° (WNW) 19:40:58 437.345
PRISM 06 May 19:32:35 19:36:42 87° 102° (ESE) 19:40:49 437.425
DOVE 4 06 May 19:37:05 19:38:54 13° 66° (ENE) 19:41:00 437.250
BRITE-PL 06 May 19:37:13 19:40:57 30° 72° (ENE) 19:44:59 437.365/2234.400
STRAND 1 06 May 19:45:50 19:50:58 86° 103° (ESE) 19:56:06 437.568
CANX-2 06 May 19:47:46 19:50:39 18° 70° (ENE) 19:53:41 2200.000
CUTE 1.7 + AOD 2 06 May 19:54:45 19:57:48 20° 71° (ENE) 20:01:00 437.475
AUBIESAT-1 06 May 19:57:44 20:01:16 46° 290° (WNW) 20:04:32 437.475
GOMX 1 06 May 19:58:35 20:02:30 33° 72° (ENE) 20:06:43 467.674
HO-68 06 May 20:03:27 20:10:12 47° 69° (ENE) 20:17:02 435.675
Cosmos 2491 06 May 20:06:13 20:10:52 17° 82° (E) 20:16:09 435.465 / 435.565
COMPASS 1 06 May 20:08:11 20:11:02 18° 71° (ENE) 20:14:01 437.405
YUBILEINY 06 May 20:13:02 20:20:50 37° 74° (ENE) 20:28:45 435.215
O/OREOS (USA 219) 06 May 20:15:39 20:20:07 54° 292° (WNW) 20:24:35 437.305
CINEMA 3 06 May 20:24:42 20:28:04 21° 69° (ENE) 20:31:40 145.822/145.860
RS-15 06 May 20:29:58 20:40:09 36° 45° (NE) 20:51:00 29.354- 29.394
CUBEBUG 2 06 May 20:37:34 20:39:57 15° 68° (ENE) 20:42:36 437.445
UWE-3 06 May 20:38:10 20:39:34 12° 67° (ENE) 20:41:14 435.000/436.395/437.385
AAUSAT CUBESAT 2 06 May 20:39:00 20:42:51 36° 74° (ENE) 20:46:44 437.432
ZACube-1 06 May 20:45:17 20:46:02 11° 66° (ENE) 20:47:06 437.345
SEEDS 06 May 20:52:04 20:56:20 80° 77° (ENE) 21:00:37 437.485
JUGNU 06 May 21:07:29 21:11:38 20° 176° (S) 21:15:49 437.505
DX 1 06 May 21:10:00 21:11:03 11° 67° (ENE) 21:12:22 434.975-435.025
DOVE 4 06 May 21:11:49 21:16:08 54° 261° (W) 21:20:47 437.250
BRITE-PL 06 May 21:16:36 21:19:39 18° 269° (W) 21:22:41 437.365/2234.400
CANX-2 06 May 21:22:31 21:26:23 31° 264° (W) 21:30:12 2200.000
CUTE 1.7 + AOD 2 06 May 21:29:48 21:33:34 28° 264° (W) 21:37:17 437.475
UKube-1 06 May 21:32:51 21:35:53 19° 70° (ENE) 21:39:02 .
GOMX 1 06 May 21:37:46 21:40:50 18° 269° (W) 21:43:51 467.674
SRMSAT 06 May 21:41:32 21:45:10 17° 171° (S) 21:48:52 437.500
COMPASS 1 06 May 21:42:46 21:46:32 30° 264° (W) 21:50:15 437.405
FUNcube-1 06 May 21:46:51 21:51:11 54° 75° (ENE) 21:55:38 145.935
Oscar 11 06 May 21:47:20 21:51:41 75° 259° (WSW) 21:56:03 145.826/435.025
HO-68 06 May 21:52:00 21:58:08 29° 265° (W) 22:04:05 435.675
AISAT 06 May 21:52:03 21:54:41 16° 69° (ENE) 21:57:31 437.250
50 SAT 06 May 21:54:09 21:56:35 16° 70° (ENE) 21:59:10 437.505
Cosmos 2491 06 May 21:58:05 22:06:50 82° 277° (W) 22:15:40 435.465 / 435.565
CINEMA 3 06 May 22:01:01 22:05:04 31° 265° (W) 22:09:15 145.822/145.860
DELFI C3 06 May 22:02:31 22:06:33 64° 259° (W) 22:10:36 145.870
HUMSAT D 06 May 22:06:30 22:10:30 41° 74° (ENE) 22:14:36 437.325/437.525
YUBILEINY 06 May 22:09:43 22:17:44 41° 271° (W) 22:25:33 435.215
UWE-3 06 May 22:11:11 22:15:36 59° 260° (W) 22:20:09 435.000/436.395/437.385
CUBEBUG 2 06 May 22:11:55 22:16:16 46° 262° (W) 22:20:44 437.445
AAUSAT CUBESAT 2 06 May 22:16:09 22:18:38 15° 268° (W) 22:20:55 437.432
ZACube-1 06 May 22:17:28 22:21:53 63° 260° (W) 22:26:24 437.345
BEESAT 2 06 May 22:21:58 22:22:53 11° 109° (ESE) 22:24:02 435.950
Cosmos 2504 06 May 22:32:09 22:37:52 24° 70° (ENE) 22:43:37 435.465 / 435.565
CUBEBUG 1 06 May 22:33:10 22:36:20 21° 71° (ENE) 22:39:38 437.445
ANTELSAT 06 May 22:34:42 22:38:25 25° 95° (E) 22:42:08 437.575/2403.000
RS-15 06 May 22:41:55 22:53:30 67° 246° (WSW) 23:05:27 29.354- 29.394
DX 1 06 May 22:42:38 22:46:52 55° 260° (W) 22:51:08 434.975-435.025
DUCHIFAT 1 06 May 22:54:06 22:56:48 17° 93° (E) 22:59:40 145.980
JUGNU 06 May 22:56:00 23:00:01 18° 186° (S) 23:03:59 437.505
VELOX 1 06 May 23:03:35 23:07:58 75° 258° (WSW) 23:12:22 145.980
SPROUT 06 May 23:06:05 23:07:40 12° 68° (ENE) 23:09:29 437.525
UKube-1 06 May 23:08:03 23:11:51 29° 263° (W) 23:15:37 .
POLYITAN 1 06 May 23:08:20 23:11:57 26° 96° (E) 23:15:36 437.675
ESTCUBE 1 06 May 23:13:20 23:17:48 75° 76° (ENE) 23:22:17 437.505/2401.250
TIGRISAT 06 May 23:17:57 23:22:34 78° 101° (ESE) 23:27:03 435.000
QB50P1 06 May 23:19:09 23:23:04 35° 97° (E) 23:27:01 145.935-145.965
TISAT 1 06 May 23:21:56 23:24:02 14° 69° (ENE) 23:26:21 437.305
AIST 1 06 May 23:22:14 23:26:30 84° 276° (W) 23:30:47
BUGSAT 1 06 May 23:24:44 23:28:18 27° 96° (E) 23:31:57 437.445
FUNcube-1 06 May 23:26:32 23:27:56 11° 271° (W) 23:29:02 145.935
AISAT 06 May 23:26:55 23:31:01 37° 262° (W) 23:35:07 437.250
50 SAT 06 May 23:27:32 23:31:09 31° 263° (W) 23:34:45 437.505
UNISAT 6 06 May 23:28:05 23:32:43 78° 282° (WNW) 23:37:13 437.425
SRMSAT 06 May 23:29:26 23:33:43 20° 180° (S) 23:37:59 437.500
BEESAT 3 06 May 23:38:26 23:42:28 67° 300° (WNW) 23:46:34 437.485
HUMSAT D 06 May 23:44:16 23:46:31 13° 269° (W) 23:48:32 437.325/437.525
QB50P2 06 May 23:49:40 23:53:59 87° 102° (ESE) 23:58:17 145.880/145.840
BEESAT 2 06 May 23:56:35 00:00:34 51° 301° (WNW) 00:04:37 435.950
NANOSAT C BR1 06 May 23:58:38 00:02:56 75° 284° (WNW) 00:07:13 145.865
Cosmos 2491 07 May 00:01:11 00:05:23 13° 298° (WNW) 00:08:52 435.465 / 435.565
POPSAT HIP 1 07 May 00:07:54 00:12:08 57° 285° (WNW) 00:16:20 437.405
CUBEBUG 1 07 May 00:08:53 00:12:35 27° 264° (W) 00:16:14 437.445
ANTELSAT 07 May 00:11:19 00:15:09 26° 289° (WNW) 00:18:49 437.575/2403.000
Cosmos 2504 07 May 00:24:30 00:31:46 51° 269° (W) 00:38:39 435.465 / 435.565
DUCHIFAT 1 07 May 00:28:52 00:32:45 33° 287° (WNW) 00:36:33 145.980
AIST 2 07 May 00:38:00 00:42:13 64° 300° (WNW) 00:46:29 435.215
ITUPSAT 1 07 May 00:39:10 00:42:12 18° 68° (ENE) 00:45:24 437.325
SPROUT 07 May 00:39:14 00:43:22 48° 261° (W) 00:47:32 437.525
POLYITAN 1 07 May 00:44:23 00:47:45 22° 289° (WNW) 00:50:59 437.675
JUGNU 07 May 00:46:45 00:48:22 11° 195° (SSW) 00:49:52 437.505
TISAT 1 07 May 00:55:35 00:59:31 39° 262° (W) 01:03:28 437.305
QB50P1 07 May 00:55:53 00:58:42 17° 291° (WNW) 01:01:20 145.935-145.965
BUGSAT 1 07 May 01:00:25 01:03:38 21° 289° (WNW) 01:06:46 437.445
BEESAT 07 May 01:00:29 01:04:35 30° 71° (ENE) 01:08:46 436.000
RS-15 07 May 01:01:15 01:04:32 11° 260° (W) 01:06:19 29.354- 29.394
SWISSCUBE 07 May 01:04:57 01:09:17 37° 72° (ENE) 01:13:40 437.505
SRMSAT 07 May 01:18:40 01:22:15 16° 190° (S) 01:25:45 437.500
CUSAT 1 07 May 01:41:52 01:48:34 27° 68° (ENE) 01:55:11 437.405
Oscar 19 07 May 01:58:32 02:03:39 58° 100° (E) 02:08:44 437.125/150
DANDE 07 May 02:02:41 02:09:58 32° 71° (ENE) 02:17:17 436.750
ITUPSAT 1 07 May 02:15:17 02:19:49 41° 262° (W) 02:24:19 437.325
KKS-1 07 May 02:19:23 02:23:24 35° 72° (ENE) 02:27:29 437.445
GONETS M04 07 May 02:33:43 02:42:30 67° 81° (E) 02:51:13
BEESAT 07 May 02:38:39 02:42:27 23° 265° (W) 02:46:10 436.000
STARS 07 May 02:42:40 02:46:44 39° 73° (ENE) 02:50:53 437.465
SWISSCUBE 07 May 02:43:53 02:47:17 19° 267° (W) 02:50:31 437.505
ITAMSAT 1 07 May 03:01:34 03:06:45 69° 102° (ESE) 03:11:56 435.822/435.867
Gurwin Techsat 1B 07 May 03:06:52 03:12:11 70° 101° (ESE) 03:17:28 435.225
CUSAT 1 07 May 03:23:39 03:31:52 61° 267° (W) 03:39:22 437.405
Oscar 19 07 May 03:39:37 03:42:34 15° 294° (WNW) 03:45:16 437.125/150
DANDE 07 May 03:45:18 03:53:36 55° 267° (W) 04:01:28 436.750
KKS-1 07 May 03:57:12 04:00:11 17° 267° (W) 04:03:00 437.445
PCSat 07 May 04:02:13 04:03:20 11° 104° (ESE) 04:04:52 145.827
Cosmos 2499 07 May 04:05:19 04:12:07 41° 76° (ENE) 04:18:44 435.465 / 435.565
MOZHAYETS 4 07 May 04:18:36 04:23:02 47° 74° (ENE) 04:27:29
STARS 07 May 04:20:49 04:23:24 15° 268° (W) 04:25:48 437.465
AO-7 07 May 04:21:04 04:29:02 49° 101° (E) 04:37:05 29.400- 29.500
GONETS M04 07 May 04:32:13 04:38:41 22° 276° (W) 04:44:40
HORYU 2 07 May 04:38:12 04:42:39 67° 284° (WNW) 04:47:03 437.375
ITAMSAT 1 07 May 04:43:29 04:45:45 13° 295° (WNW) 04:47:44 435.822/435.867
Gurwin Techsat 1B 07 May 04:49:13 04:51:38 13° 295° (WNW) 04:53:45 435.225
O/OREOS (USA 219) 07 May 04:52:04 04:53:56 13° 57° (ENE) 04:56:03 437.305
